SCP
0 1 1 1 1 0 0 0 0 0 0 0 0 0 0 0 0 0 0 0 0 0 0 0 0 0 0 0 0 0 0 0 0 0 0 0 0 0 0 0 0 0 0 0 0 0 0
0 -0 0 1 1 1 0 0 0 0 0 0 0 0 0 0 0 0 0 0 0 0 0 0 0 0 0 0 0 0 0 0 0 0 0 0 0 0 0 0 0 0 0 0 0 0 0
0 0 0 0 1 0 0 0 0 0 0 0 0 0 0 0 0 0 0 0 0 0 0 0 0 0 0 0 0 0 0 -0 -0 0 0 0 0 0 0 0 0 0 0 0 0 0 0
0 0 -0 0 1 1 0 0 0 0 0 0 0 0 0 0 0 0 0 0 0 0 0 0 0 0 0 0 0 0 0 0 0 0 0 0 0 0 0 0 0 0 0 0 0 0 0
0 0 -0 0 0 1 0 0 0 0 0 0 0 0 0 0 0 0 0 0 0 0 0 0 0 0 0 0 0 0 0 0 0 0 0 0 0 0 0 0 0 0 0 0 0 0 0
0 0 0 -0 0 1 0 0 0 0 0 0 0 0 0 0 0 0 0 0 0 0 0 0 0 0 0 0 0 0 0 0 0 0 0 0 0 0 0 0 0 0 0 0 0 0 0
0 0 -0 -0 0 0 1 0 0 0 0 0 0 0 0 0 0 0 0 0 0 0 0 0 0 0 0 0 0 0 0 0 0 0 0 0 0 0 0 0 0 0 0 0 0 0 0
0 0 -0 -0 -0 0 1 0 0 0 0 0 0 0 0 0 0 0 0 0 0 0 0 0 0 0 0 0 0 0 0 0 0 0 0 0 0 0 0 0 0 0 0 0 0 0 0
0 0 0 -0 0 0 0 0 0 0 0 0 0 0 0 0 0 0 0 0 0 0 0 0 0 0 0 0 0 0 0 0 0 0 0 0 0 0 0 0 0 0 0 0 0 0 0
0 0 0 -0 0 0 0 0 0 0 0 0 0 0 0 0 0 0 0 0 0 1 0 0 0 0 0 0 0 0 0 0 0 0 0 0 0 0 0 0 0 0 0 0 0 0 0
0 0 -0 0 0 0 0 0 0 0 0 0 0 0 0 0 0 0 0 0 0 0 0 0 0 0 0 0 0 0 0 0 0 0 0 0 0 0 0 0 0 0 0 0 0 0 0
0 0 0 0 0 0 0 0 0 0 0 0 0 0 0 0 0 0 0 0 0 0 0 0 0 0 0 0 0 0 0 0 0 0 0 0 0 0 0 0 0 0 0 0 0 0 0
0 -0 0 0 0 0 0 0 0 0 0 0 0 0 0 0 0 0 0 1 0 0 0 0 0 0 0 0 0 0 0 0 0 0 0 0 0 0 0 0 0 0 0 0 0 0 0
0 0 0 0 0 0 0 0 0 0 0 0 0 0 0 0 0 0 0 0 0 0 0 0 0 0 0 0 0 0 0 0 0 0 0 0 0 0 0 0 0 0 0 0 0 0 0
0 0 0 0 0 0 0 0 0 0 0 0 0 0 0 0 1 0 0 0 0 0 0 0 0 0 0 0 0 0 0 0 0 0 0 0 0 0 0 0 0 0 0 0 0 0 0
0 0 0 0 0 0 0 0 0 0 0 0 0 0 0 0 0 0 0 0 0 0 0 0 0 0 0 0 0 0 0 0 0 0 0 0 0 0 0 0 0 0 0 0 0 0 0
0 0 0 0 0 0 0 0 0 0 0 0 0 0 0 0 0 0 0 0 0 0 0 0 0 -0 0 0 0 0 0 0 0 0 0 0 0 0 0 0 0 0 0 0 0 0 0
0 0 0 0 0 0 0 0 0 0 0 0 0 0 0 0 0 0 0 0 0 0 0 0 0 -0 -0 -0 0 0 0 0 0 0 0 0 0 0 0 0 0 0 0 0 0 0 0
0 0 0 0 0 0 0 0 0 0 0 0 0 0 0 0 0 0 0 0 0 0 0 -0 -0 -0 0 -0 -0 0 0 0 0 0 0 0 0 0 0 0 0 0 0 0 0 0 0
0 0 0 0 0 0 0 0 0 0 0 0 0 0 0 0 0 0 0 0 0 0 0 0 -0 -0 0 0 0 0 0 0 0 0 0 0 0 0 0 0 0 0 0 0 0 0 0
0 0 -0 -0 0 0 0 0 0 0 0 0 0 0 0 0 0 0 0 0 0 0 0 -0 -0 -0 -0 -0 0 -0 0 0 0 0 0 0 0 0 0 0 0 0 0 0 0 0 0
0 0 -0 0 0 0 0 0 0 0 0 0 0 0 0 0 0 0 0 0 0 0 0 -0 -0 -0 -0 -0 0 0 0 0 0 0 0 0 0 0 0 0 0 0 0 0 0 0 0
0 0 0 0 0 0 0 0 0 0 0 0 0 0 0 0 0 0 0 0 0 0 0 0 -0 -0 -0 -0 -0 0 0 0 0 0 0 0 0 0 0 0 0 0 0 0 0 0 0
0 0 -0 0 0 0 0 0 0 0 0 0 0 0 0 0 0 0 0 0 0 0 -0 -0 -0 -0 -0 -0 -0 0 0 0 0 0 0 0 0 0 0 0 0 0 0 0 0 0 0
0 0 0 0 0 0 0 0 0 0 0 0 0 0 0 0 0 0 0 0 0 0 0 -0 0 0 -0 0 0 0 0 0 0 0 0 0 0 0 0 0 0 0 0 0 0 0 0
0 0 0 0 0 0 0 0 0 0 0 0 0 0 0 0 0 0 0 0 0 0 0 0 0 0 -0 0 0 0 0 0 0 0 0 0 0 0 0 0 0 0 0 0 0 0 0
0 0 0 0 0 0 0 0 0 0 0 0 0 0 0 0 0 0 0 0 0 0 0 0 0 0 0 0 0 0 0 0 0 0 0 0 0 0 0 0 0 0 0 0 0 0 0
0 0 0 0 0 0 0 0 0 0 0 0 0 0 0 0 0 0 0 0 0 0 0 0 0 0 0 0 0 0 0 0 0 0 0 0 0 0 0 0 0 0 0 0 0 0 0
-0 0 0 0 0 0 0 0 0 0 0 0 0 0 0 0 0 0 0 0 0 0 0 0 0 0 0 0 0 0 0 0 0 0 0 0 0 0 0 0 0 0 0 0 0 0 0
Wind_Speed_500mb
97 107 114 113 102 91 99 90 85 81 82 75 68 62 60 56 55 54 64 70 65 57 52 47 48 48 45 38 39 5 9 38 35 40 38 26 32 18 11 18 14 25 33 15 11 14 17
85 92 123 117 111 101 95 95 88 82 81 82 71 63 61 61 55 53 52 63 59 57 54 49 49 50 54 40 39 25 22 14 43 48 41 39 22 27 17 15 20 14 39 15 20 25 12
87 93 75 116 120 107 98 94 87 86 83 80 76 67 65 63 58 51 49 56 58 58 51 51 51 52 52 54 18 50 45 10 32 42 34 37 37 22 13 17 25 43 11 22 21 24 11
86 82 104 75 122 112 102 100 96 90 85 82 76 69 66 63 59 53 49 53 56 56 51 46 46 53 30 59 25 40 47 31 27 31 29 24 29 24 8 7 14 11 15 19 20 27 26
79 74 81 112 120 119 108 99 97 91 87 84 80 73 67 63 59 54 50 53 52 48 47 46 47 42 24 30 74 48 44 42 30 31 30 23 23 12 11 7 10 14 11 24 15 33 7
88 88 77 88 61 128 111 98 95 94 90 87 84 77 69 66 62 56 52 54 49 42 40 44 34 25 32 45 61 50 44 45 43 39 25 20 15 13 10 16 28 13 18 15 28 16 20
94 83 84 87 116 126 117 103 93 93 91 88 86 79 72 68 65 60 56 59 50 30 60 40 30 20 12 29 50 58 45 48 40 44 18 33 14 33 33 24 20 23 16 29 11 16 16
90 84 83 84 88 123 119 105 96 97 91 89 87 80 73 71 66 61 68 65 64 24 18 45 27 53 24 34 34 55 62 38 30 30 37 15 36 34 26 29 24 22 16 22 15 11 3
87 86 79 78 83 104 113 106 96 95 94 93 89 81 76 72 66 62 73 63 54 34 13 39 58 36 27 34 22 54 68 56 23 42 42 32 29 37 33 30 31 31 20 12 13 8 5
80 80 73 84 89 116 115 103 96 93 94 92 86 79 76 74 65 67 65 57 62 40 4 12 29 32 49 30 24 47 77 55 19 21 48 32 31 44 34 37 29 34 18 13 11 9 8
79 74 61 67 127 120 108 93 96 93 94 91 84 79 79 86 57 65 66 55 48 38 10 18 27 20 56 37 25 43 71 51 29 37 20 29 48 48 48 42 33 9 25 22 10 5 4
68 66 81 79 103 103 92 92 94 95 92 87 84 84 80 76 50 57 59 61 44 10 16 9 23 32 34 46 24 19 53 65 30 19 52 30 26 34 36 31 24 16 14 14 9 1 11
79 93 80 97 93 89 89 94 95 97 89 84 85 83 80 79 57 63 62 59 15 19 7 11 13 27 45 31 38 19 43 45 28 17 22 13 29 29 58 37 16 17 19 6 11 11 22
98 101 101 93 89 81 89 93 95 95 88 85 85 80 74 68 67 71 73 21 12 14 12 7 6 13 41 36 43 42 12 42 40 29 20 20 22 33 24 37 18 43 36 9 16 9 10
74 79 81 77 77 82 88 91 91 94 88 89 87 83 70 60 79 74 58 24 16 10 16 18 16 2 32 37 9 40 41 9 35 45 20 27 10 17 27 33 28 18 24 11 7 3 5
55 57 61 65 71 79 83 88 94 94 97 99 88 73 63 68 63 73 22 17 13 6 8 5 14 18 13 44 29 47 45 38 9 39 24 19 10 9 2 19 14 19 14 8 4 10 8
44 49 55 59 70 71 82 84 97 100 113 102 82 31 54 64 65 33 14 14 5 13 17 11 9 5 18 15 42 29 23 20 62 32 34 26 10 8 10 12 28 11 24 12 10 7 8
42 48 54 57 69 75 75 94 103 113 115 88 37 9 57 65 12 4 20 29 22 21 20 8 9 7 7 10 23 44 45 53 80 73 58 25 12 16 22 9 4 16 25 15 12 10 4
32 39 46 49 57 62 70 105 116 113 101 76 27 24 52 61 14 12 10 31 30 21 21 16 12 20 5 7 12 45 46 38 93 57 45 22 12 15 10 6 5 15 23 35 14 5 14
31 35 44 52 52 61 94 109 115 107 80 71 28 9 15 35 24 19 20 18 33 33 9 12 3 10 7 16 23 27 42 25 85 51 58 40 11 21 35 46 22 25 36 35 33 9 10
33 36 52 67 68 85 106 110 107 95 79 53 12 7 18 18 25 18 29 17 35 20 26 33 10 25 17 15 26 41 35 17 52 57 35 16 10 17 1 30 27 43 45 39 36 47 19
41 43 53 76 74 75 90 89 100 92 70 35 15 12 26 13 29 29 25 29 35 38 21 18 24 21 27 26 29 28 33 27 25 22 34 11 5 10 7 28 38 38 40 40 41 53 47
31 46 65 71 86 95 95 104 103 86 60 20 17 27 41 23 27 26 28 22 31 32 28 28 25 26 33 44 46 61 90 45 34 33 29 28 12 15 9 16 20 17 46 52 51 37 58
28 51 92 90 86 85 87 85 83 81 47 24 24 31 13 8 24 29 26 32 28 35 24 20 44 32 5 19 35 22 29 10 49 42 32 26 16 5 10 15 11 13 39 52 62 49 52
53 64 75 80 82 82 79 75 76 81 45 21 25 16 11 7 15 17 35 21 43 29 30 18 23 23 7 19 4 8 2 6 8 29 34 21 13 9 11 15 6 4 11 55 42 44 39
52 60 67 67 74 74 71 63 61 66 56 31 25 25 11 11 13 16 11 30 18 16 3 8 21 24 30 7 8 9 8 10 12 7 6 24 8 8 8 11 20 5 19 38 14 28 31
51 56 56 62 77 73 65 58 49 42 32 24 22 21 12 11 8 19 5 14 10 9 4 3 3 15 44 6 9 5 5 7 15 26 19 13 7 17 16 7 12 9 14 49 19 14 22
50 55 44 41 61 64 58 46 38 31 25 22 21 19 15 11 12 21 16 9 12 16 7 10 8 8 5 9 5 5 5 7 8 17 25 18 18 12 7 6 14 22 10 24 8 4 12
44 44 39 41 43 45 44 40 34 26 19 16 18 15 14 7 10 8 10 20 16 14 11 26 6 7 13 7 4 5 4 4 10 15 14 8 11 15 15 10 4 64 24 15 23 25 18
Wind_Direction_500mb
264 239 239 234 232 230 231 235 228 228 227 226 227 227 227 219 219 220 217 220 221 218 214 209 201 201 196 205 224 97 72 220 207 203 200 177 207 184 173 197 223 274 270 225 164 152 108
265 260 233 231 228 230 228 231 229 226 224 226 226 227 226 225 218 217 216 215 215 215 210 205 199 199 201 226 215 223 264 196 201 199 198 179 220 209 215 213 167 264 232 216 189 195 170
259 258 256 231 228 225 223 224 227 223 224 223 221 223 223 224 220 216 215 211 212 211 207 201 203 203 209 218 217 229 246 265 186 196 193 192 196 227 246 225 219 207 266 266 195 226 201
257 255 255 254 225 221 219 222 223 221 220 220 219 217 218 219 216 213 213 206 207 208 206 199 200 202 225 223 199 200 218 209 188 189 188 203 203 264 234 318 182 197 224 240 192 211 233
254 253 249 248 217 216 218 220 217 216 215 216 214 213 213 215 210 208 208 202 202 203 205 199 196 203 240 211 208 206 209 193 179 179 194 193 203 198 237 241 187 194 209 224 223 190 140
249 251 250 254 252 213 215 216 215 211 212 210 210 209 208 209 204 202 200 194 191 187 181 181 196 184 220 211 206 197 189 187 168 161 161 171 175 194 211 216 205 182 215 219 217 215 201
243 243 246 239 241 209 209 212 212 206 205 206 205 205 203 202 199 196 187 176 171 185 184 188 186 202 120 189 206 198 200 186 165 162 170 186 183 208 202 223 246 228 212 218 207 226 186
235 235 236 234 235 203 205 208 209 204 202 201 200 200 199 195 194 191 186 181 185 199 174 202 209 208 196 189 185 211 201 177 184 187 178 174 217 204 213 208 242 250 229 216 234 55 236
227 231 232 229 225 201 202 206 201 198 197 198 197 195 194 189 189 189 190 182 176 162 180 202 213 207 207 207 199 199 196 195 199 197 194 197 213 194 207 223 205 230 214 217 233 122 316
223 224 224 227 223 195 198 197 193 193 194 194 191 190 189 184 185 188 189 179 180 174 180 210 190 227 207 176 218 207 203 191 200 232 194 216 189 185 202 222 198 215 182 216 116 135 224
215 211 219 225 178 186 190 189 186 189 190 188 187 187 183 185 177 183 180 178 158 161 199 190 170 193 187 185 136 203 208 202 192 200 216 197 184 188 199 203 197 255 195 206 167 177 56
218 214 202 180 177 181 185 182 184 184 184 184 183 181 179 179 178 176 177 174 149 147 225 153 140 176 166 196 201 159 192 216 211 222 205 211 192 186 198 196 183 136 87 60 62 330 241
226 204 204 179 176 182 178 179 179 179 178 177 176 176 175 172 172 167 168 156 165 201 185 175 179 179 181 184 184 180 188 195 194 202 191 176 199 182 179 185 142 147 152 145 201 217 247
139 144 156 163 171 170 173 176 176 177 173 173 172 169 172 172 167 170 163 153 195 197 179 101 94 215 199 178 207 198 231 199 196 182 178 180 189 163 176 188 170 182 176 158 198 204 210
133 144 158 171 171 172 174 175 176 179 172 169 164 160 155 158 166 167 157 179 199 172 187 155 120 27 208 201 167 194 197 217 194 178 186 172 150 185 181 155 155 175 203 195 100 122 61
134 147 160 168 167 169 176 174 175 175 169 166 154 149 156 157 161 168 159 188 204 190 58 143 188 184 230 195 183 194 189 203 232 212 184 172 118 231 88 129 182 184 140 177 258 159 224
142 153 161 167 168 169 176 172 174 170 167 159 141 124 161 156 162 161 190 205 162 201 137 140 184 291 224 241 201 196 200 196 199 215 232 149 130 205 162 195 164 178 184 210 174 201 186
142 150 162 165 172 175 169 163 168 163 159 150 133 108 160 159 132 172 203 202 212 166 165 126 156 148 246 213 237 200 207 197 188 191 214 175 161 156 189 359 305 203 182 197 188 209 194
144 151 162 170 174 174 177 163 165 165 159 146 109 98 160 162 170 196 205 208 217 213 202 174 205 195 217 245 280 207 210 222 186 183 174 183 156 131 119 140 344 195 195 202 204 86 202
149 165 172 172 179 174 177 165 164 159 155 146 119 120 145 196 225 184 185 212 208 216 192 196 253 192 216 267 280 280 213 193 190 193 157 198 160 183 196 197 145 192 193 200 198 191 194
157 159 167 164 164 168 157 162 159 156 153 148 108 143 170 180 206 207 182 197 201 199 202 186 203 213 203 252 282 281 222 171 190 188 159 217 148 176 305 166 173 191 183 192 201 225 198
164 161 164 166 164 164 157 155 159 160 161 152 118 131 170 163 180 206 206 205 210 203 169 206 224 203 199 220 226 288 188 180 185 156 164 180 156 105 329 169 174 184 194 195 206 220 222
166 172 170 167 164 154 159 164 166 165 159 145 133 130 147 146 184 190 216 210 214 207 198 213 201 226 216 228 237 253 254 176 164 172 165 175 137 148 177 137 125 178 196 195 213 215 218
157 147 170 156 152 155 162 168 169 168 163 164 141 143 146 157 177 207 196 220 231 214 207 215 224 233 221 272 257 248 198 33 162 178 170 164 127 83 144 114 199 225 191 205 210 216 226
145 139 153 156 160 163 163 165 173 175 171 163 156 134 150 130 178 194 216 217 224 230 214 222 207 223 289 141 204 144 118 104 156 177 176 183 140 111 154 187 236 232 204 196 191 233 222
98 118 150 163 158 159 160 162 169 182 193 209 186 167 133 127 198 183 193 219 205 208 230 239 249 221 201 179 244 183 180 129 143 88 43 162 162 116 164 160 207 210 183 171 147 262 209
105 82 94 126 158 155 152 150 152 161 170 182 170 169 143 116 175 166 165 213 190 153 170 122 190 205 190 207 228 158 123 140 151 152 162 150 150 178 183 192 275 176 152 136 151 242 205
87 93 91 96 116 132 140 142 144 151 158 167 158 169 159 121 155 192 186 180 169 172 170 164 161 199 122 226 217 131 133 212 110 147 165 160 156 177 169 150 258 169 116 166 185 107 142
105 106 104 103 107 116 127 128 128 128 136 144 145 141 150 133 138 171 195 207 211 191 188 187 253 154 176 210 217 123 154 130 162 164 198 161 191 158 181 190 219 171 186 167 148 141 130
Wind_Speed_850mb
97 107 114 113 102 91 99 90 85 81 82 75 68 62 60 56 55 54 64 70 65 57 52 47 48 48 45 38 39 5 9 38 35 40 38 26 32 18 11 18 14 25 33 15 11 14 17
85 92 123 117 111 101 95 95 88 82 81 82 71 63 61 61 55 53 52 63 59 57 54 49 49 50 54 40 39 25 22 14 43 48 41 39 22 27 17 15 20 14 39 15 20 25 12
87 93 75 116 120 107 98 94 87 86 83 80 76 67 65 63 58 51 49 56 58 58 51 51 51 52 52 54 18 50 45 10 32 42 34 37 37 22 13 17 25 43 11 22 21 24 11
86 82 104 75 122 112 102 100 96 90 85 82 76 69 66 63 59 53 49 53 56 56 51 46 46 53 30 59 25 40 47 31 27 31 29 24 29 24 8 7 14 11 15 19 20 27 26
79 74 81 112 120 119 108 99 97 91 87 84 80 73 67 63 59 54 50 53 52 48 47 46 47 42 24 30 74 48 44 42 30 31 30 23 23 12 11 7 10 14 11 24 15 33 7
88 88 77 88 61 128 111 98 95 94 90 87 84 77 69 66 62 56 52 54 49 42 40 44 34 25 32 45 61 50 44 45 43 39 25 20 15 13 10 16 28 13 18 15 28 16 20
94 83 84 87 116 126 117 103 93 93 91 88 86 79 72 68 65 60 56 59 50 30 60 40 30 20 12 29 50 58 45 48 40 44 18 33 14 33 33 24 20 23 16 29 11 16 16
90 84 83 84 88 123 119 105 96 97 91 89 87 80 73 71 66 61 68 65 64 24 18 45 27 53 24 34 34 55 62 38 30 30 37 15 36 34 26 29 24 22 16 22 15 11 3
87 86 79 78 83 104 113 106 96 95 94 93 89 81 76 72 66 62 73 63 54 34 13 39 58 36 27 34 22 54 68 56 23 42 42 32 29 37 33 30 31 31 20 12 13 8 5
80 80 73 84 89 116 115 103 96 93 94 92 86 79 76 74 65 67 65 57 62 40 4 12 29 32 49 30 24 47 77 55 19 21 48 32 31 44 34 37 29 34 18 13 11 9 8
79 74 61 67 127 120 108 93 96 93 94 91 84 79 79 86 57 65 66 55 48 38 10 18 27 20 56 37 25 43 71 51 29 37 20 29 48 48 48 42 33 9 25 22 10 5 4
68 66 81 79 103 103 92 92 94 95 92 87 84 84 80 76 50 57 59 61 44 10 16 9 23 32 34 46 24 19 53 65 30 19 52 30 26 34 36 31 24 16 14 14 9 1 11
79 93 80 97 93 89 89 94 95 97 89 84 85 83 80 79 57 63 62 59 15 19 7 11 13 27 45 31 38 19 43 45 28 17 22 13 29 29 58 37 16 17 19 6 11 11 22
98 101 101 93 89 81 89 93 95 95 88 85 85 80 74 68 67 71 73 21 12 14 12 7 6 13 41 36 43 42 12 42 40 29 20 20 22 33 24 37 18 43 36 9 16 9 10
74 79 81 77 77 82 88 91 91 94 88 89 87 83 70 60 79 74 58 24 16 10 16 18 16 2 32 37 9 40 41 9 35 45 20 27 10 17 27 33 28 18 24 11 7 3 5
55 57 61 65 71 79 83 88 94 94 97 99 88 73 63 68 63 73 22 17 13 6 8 5 14 18 13 44 29 47 45 38 9 39 24 19 10 9 2 19 14 19 14 8 4 10 8
44 49 55 59 70 71 82 84 97 100 113 102 82 31 54 64 65 33 14 14 5 13 17 11 9 5 18 15 42 29 23 20 62 32 34 26 10 8 10 12 28 11 24 12 10 7 8
42 48 54 57 69 75 75 94 103 113 115 88 37 9 57 65 12 4 20 29 22 21 20 8 9 7 7 10 23 44 45 53 80 73 58 25 12 16 22 9 4 16 25 15 12 10 4
32 39 46 49 57 62 70 105 116 113 101 76 27 24 52 61 14 12 10 31 30 21 21 16 12 20 5 7 12 45 46 38 93 57 45 22 12 15 10 6 5 15 23 35 14 5 14
31 35 44 52 52 61 94 109 115 107 80 71 28 9 15 35 24 19 20 18 33 33 9 12 3 10 7 16 23 27 42 25 85 51 58 40 11 21 35 46 22 25 36 35 33 9 10
33 36 52 67 68 85 106 110 107 95 79 53 12 7 18 18 25 18 29 17 35 20 26 33 10 25 17 15 26 41 35 17 52 57 35 16 10 17 1 30 27 43 45 39 36 47 19
41 43 53 76 74 75 90 89 100 92 70 35 15 12 26 13 29 29 25 29 35 38 21 18 24 21 27 26 29 28 33 27 25 22 34 11 5 10 7 28 38 38 40 40 41 53 47
31 46 65 71 86 95 95 104 103 86 60 20 17 27 41 23 27 26 28 22 31 32 28 28 25 26 33 44 46 61 90 45 34 33 29 28 12 15 9 16 20 17 46 52 51 37 58
28 51 92 90 86 85 87 85 83 81 47 24 24 31 13 8 24 29 26 32 28 35 24 20 44 32 5 19 35 22 29 10 49 42 32 26 16 5 10 15 11 13 39 52 62 49 52
53 64 75 80 82 82 79 75 76 81 45 21 25 16 11 7 15 17 35 21 43 29 30 18 23 23 7 19 4 8 2 6 8 29 34 21 13 9 11 15 6 4 11 55 42 44 39
52 60 67 67 74 74 71 63 61 66 56 31 25 25 11 11 13 16 11 30 18 16 3 8 21 24 30 7 8 9 8 10 12 7 6 24 8 8 8 11 20 5 19 38 14 28 31
51 56 56 62 77 73 65 58 49 42 32 24 22 21 12 11 8 19 5 14 10 9 4 3 3 15 44 6 9 5 5 7 15 26 19 13 7 17 16 7 12 9 14 49 19 14 22
50 55 44 41 61 64 58 46 38 31 25 22 21 19 15 11 12 21 16 9 12 16 7 10 8 8 5 9 5 5 5 7 8 17 25 18 18 12 7 6 14 22 10 24 8 4 12
44 44 39 41 43 45 44 40 34 26 19 16 18 15 14 7 10 8 10 20 16 14 11 26 6 7 13 7 4 5 4 4 10 15 14 8 11 15 15 10 4 64 24 15 23 25 18
Wind_Direction_850mb
264 239 239 234 232 230 231 235 228 228 227 226 227 227 227 219 219 220 217 220 221 218 214 209 201 201 196 205 224 97 72 220 207 203 200 177 207 184 173 197 223 274 270 225 164 152 108
265 260 233 231 228 230 228 231 229 226 224 226 226 227 226 225 218 217 216 215 215 215 210 205 199 199 201 226 215 223 264 196 201 199 198 179 220 209 215 213 167 264 232 216 189 195 170
259 258 256 231 228 225 223 224 227 223 224 223 221 223 223 224 220 216 215 211 212 211 207 201 203 203 209 218 217 229 246 265 186 196 193 192 196 227 246 225 219 207 266 266 195 226 201
257 255 255 254 225 221 219 222 223 221 220 220 219 217 218 219 216 213 213 206 207 208 206 199 200 202 225 223 199 200 218 209 188 189 188 203 203 264 234 318 182 197 224 240 192 211 233
254 253 249 248 217 216 218 220 217 216 215 216 214 213 213 215 210 208 208 202 202 203 205 199 196 203 240 211 208 206 209 193 179 179 194 193 203 198 237 241 187 194 209 224 223 190 140
249 251 250 254 252 213 215 216 215 211 212 210 210 209 208 209 204 202 200 194 191 187 181 181 196 184 220 211 206 197 189 187 168 161 161 171 175 194 211 216 205 182 215 219 217 215 201
243 243 246 239 241 209 209 212 212 206 205 206 205 205 203 202 199 196 187 176 171 185 184 188 186 202 120 189 206 198 200 186 165 162 170 186 183 208 202 223 246 228 212 218 207 226 186
235 235 236 234 235 203 205 208 209 204 202 201 200 200 199 195 194 191 186 181 185 199 174 202 209 208 196 189 185 211 201 177 184 187 178 174 217 204 213 208 242 250 229 216 234 55 236
227 231 232 229 225 201 202 206 201 198 197 198 197 195 194 189 189 189 190 182 176 162 180 202 213 207 207 207 199 199 196 195 199 197 194 197 213 194 207 223 205 230 214 217 233 122 316
223 224 224 227 223 195 198 197 193 193 194 194 191 190 189 184 185 188 189 179 180 174 180 210 190 227 207 176 218 207 203 191 200 232 194 216 189 185 202 222 198 215 182 216 116 135 224
215 211 219 225 178 186 190 189 186 189 190 188 187 187 183 185 177 183 180 178 158 161 199 190 170 193 187 185 136 203 208 202 192 200 216 197 184 188 199 203 197 255 195 206 167 177 56
218 214 202 180 177 181 185 182 184 184 184 184 183 181 179 179 178 176 177 174 149 147 225 153 140 176 166 196 201 159 192 216 211 222 205 211 192 186 198 196 183 136 87 60 62 330 241
226 204 204 179 176 182 178 179 179 179 178 177 176 176 175 172 172 167 168 156 165 201 185 175 179 179 181 184 184 180 188 195 194 202 191 176 199 182 179 185 142 147 152 145 201 217 247
139 144 156 163 171 170 173 176 176 177 173 173 172 169 172 172 167 170 163 153 195 197 179 101 94 215 199 178 207 198 231 199 196 182 178 180 189 163 176 188 170 182 176 158 198 204 210
133 144 158 171 171 172 174 175 176 179 172 169 164 160 155 158 166 167 157 179 199 172 187 155 120 27 208 201 167 194 197 217 194 178 186 172 150 185 181 155 155 175 203 195 100 122 61
134 147 160 168 167 169 176 174 175 175 169 166 154 149 156 157 161 168 159 188 204 190 58 143 188 184 230 195 183 194 189 203 232 212 184 172 118 231 88 129 182 184 140 177 258 159 224
142 153 161 167 168 169 176 172 174 170 167 159 141 124 161 156 162 161 190 205 162 201 137 140 184 291 224 241 201 196 200 196 199 215 232 149 130 205 162 195 164 178 184 210 174 201 186
142 150 162 165 172 175 169 163 168 163 159 150 133 108 160 159 132 172 203 202 212 166 165 126 156 148 246 213 237 200 207 197 188 191 214 175 161 156 189 359 305 203 182 197 188 209 194
144 151 162 170 174 174 177 163 165 165 159 146 109 98 160 162 170 196 205 208 217 213 202 174 205 195 217 245 280 207 210 222 186 183 174 183 156 131 119 140 344 195 195 202 204 86 202
149 165 172 172 179 174 177 165 164 159 155 146 119 120 145 196 225 184 185 212 208 216 192 196 253 192 216 267 280 280 213 193 190 193 157 198 160 183 196 197 145 192 193 200 198 191 194
157 159 167 164 164 168 157 162 159 156 153 148 108 143 170 180 206 207 182 197 201 199 202 186 203 213 203 252 282 281 222 171 190 188 159 217 148 176 305 166 173 191 183 192 201 225 198
164 161 164 166 164 164 157 155 159 160 161 152 118 131 170 163 180 206 206 205 210 203 169 206 224 203 199 220 226 288 188 180 185 156 164 180 156 105 329 169 174 184 194 195 206 220 222
166 172 170 167 164 154 159 164 166 165 159 145 133 130 147 146 184 190 216 210 214 207 198 213 201 226 216 228 237 253 254 176 164 172 165 175 137 148 177 137 125 178 196 195 213 215 218
157 147 170 156 152 155 162 168 169 168 163 164 141 143 146 157 177 207 196 220 231 214 207 215 224 233 221 272 257 248 198 33 162 178 170 164 127 83 144 114 199 225 191 205 210 216 226
145 139 153 156 160 163 163 165 173 175 171 163 156 134 150 130 178 194 216 217 224 230 214 222 207 223 289 141 204 144 118 104 156 177 176 183 140 111 154 187 236 232 204 196 191 233 222
98 118 150 163 158 159 160 162 169 182 193 209 186 167 133 127 198 183 193 219 205 208 230 239 249 221 201 179 244 183 180 129 143 88 43 162 162 116 164 160 207 210 183 171 147 262 209
105 82 94 126 158 155 152 150 152 161 170 182 170 169 143 116 175 166 165 213 190 153 170 122 190 205 190 207 228 158 123 140 151 152 162 150 150 178 183 192 275 176 152 136 151 242 205
87 93 91 96 116 132 140 142 144 151 158 167 158 169 159 121 155 192 186 180 169 172 170 164 161 199 122 226 217 131 133 212 110 147 165 160 156 177 169 150 258 169 116 166 185 107 142
105 106 104 103 107 116 127 128 128 128 136 144 145 141 150 133 138 171 195 207 211 191 188 187 253 154 176 210 217 123 154 130 162 164 198 161 191 158 181 190 219 171 186 167 148 141 130